Regional Weather Roundup
Issued by NWS Sterling, VA

Home | Current Version | Previous Version | Graphics & Text | Print | Product List | Glossary On
Versions: 1 2 3 4 5 6 7 8 9 10 11 12 13 14 15 16 17 18 19 20 21 22 23 24 25 26 27
000
ASUS41 KLWX 270411
RWRLWX

REGIONAL WEATHER ROUNDUP
NATIONAL WEATHER SERVICE BALTIMORE MD/WASHINGTON DC
1200 AM EDT TUE JUN 27 2017

Note: "FAIR" indicates few or no clouds below 12,000 feet
with no significant weather and/or obstructions to visibility.
 TC=TEMPERATURE CELSIUS

 * =Non NWS site. Station does not report precipitation (e.g. rain,
    snow, etc.), thunder, or fog.

DCZ001-MDZ009-015-VAZ040>042-051-053>054-270500-
WASHINGTON METRO

CITY           SKY/WX    TMP DP  RH WIND       PRES   REMARKS
WASHINGTON NAT MOCLDY    75  63  66 S9        29.99S
DULLES         CLOUDY    72  51  47 NW6       30.01R
ANDREWS AFB    PTCLDY    67  58  70 S7        29.99S
FT BELVOIR     MOCLDY    66  60  80 CALM      29.99S
QUANTICO       CLEAR     67  62  84 NW8       30.00S
COLLEGE PARK*  CLOUDY    70  57  63 CALM      29.99R
LEESBURG*      CLOUDY    72  54  53 NW6       30.03R
MANASSAS*      PTCLDY    65  57  75 N3        30.02R
GAITHERSBURG*  CLOUDY    71  53  52 CALM      30.02R

$$

MDZ006>007-011-014-270500-
BALTIMORE METRO

CITY           SKY/WX    TMP DP  RH WIND       PRES   REMARKS
BWI AIRPORT    MOCLDY    72  58  61 SW5       29.98S
MD SCIENCE CTR   N/A     75  57  53 MISG      29.99S
MARTIN STATE   MOCLDY    73  63  68 S5        29.99S
ANNAPOLIS      PTCLDY    71  64  78 S3        29.98F
FORT MEADE*    CLOUDY    63  59  88 CALM      30.01S

$$

MDZ012-015-019>023-270500-
MARYLAND EASTERN SHORE

CITY           SKY/WX    TMP DP  RH WIND       PRES   REMARKS
OCEAN CITY     CLEAR     71  63  75 SW6       30.02F
SALISBURY      CLEAR     65  60  84 S6        30.01F
BAY BRIDGE AP* PTCLDY    75  61  60 S7        29.98F
CAMBRIDGE*     CLEAR     66  59  77 SE6       30.00S
EASTON*        CLEAR     71  58  63 S6        30.03F

$$

MDZ017>025-270500-
SOUTHERN MARYLAND

CITY           SKY/WX    TMP DP  RH WIND       PRES   REMARKS
PATUXENT RIVER CLEAR     72  59  63 S6        29.99F
ST INIGOES     CLEAR     74  62  66 S7        29.99F
LEONARDTOWN*   CLEAR     68  59  73 CALM      30.01S

$$

MDZ003>005-270500-
NORTH CENTRAL MARYLAND

CITY           SKY/WX    TMP DP  RH WIND       PRES   REMARKS
FREDERICK*     CLOUDY    64  55  72 CALM      30.04R
HAGERSTOWN APT MOCLDY    68  50  52 W3        30.03R
WESTMINSTER*   CLOUDY    70  55  60 CALM      30.01F

$$

MDZ501>502-270500-
WESTERN MARYLAND

CITY           SKY/WX    TMP DP  RH WIND       PRES   REMARKS
OAKLAND*       NOT AVBL
CUMBERLAND*    CLEAR     64  46  52 SW5       30.07F

$$

VAZ025>031-270500-
SHENANDOAH VALLEY

CITY           SKY/WX    TMP DP  RH WIND       PRES   REMARKS
WINCHESTER*    MOCLDY    64  46  52 S3        30.04R
FRONT ROYAL*   CLEAR     64  46  52 CALM      30.03S
LURAY*         CLEAR     63  54  72 CALM      30.04S
NEW MARKET*    CLEAR     55  50  82 CALM      30.05S
STAUNTON*      CLEAR     57  49  73 CALM      30.09S
WAYNESBORO*    CLEAR     58  53  83 S7        30.08S

$$

WVZ021-048>050-054>055-270500-
EASTERN WEST VIRGINIA PANHANDLE

CITY           SKY/WX    TMP DP  RH WIND       PRES   REMARKS
MARTINSBURG    MOCLDY    64  49  57 W6        30.02R
PETERSBURG*    PTCLDY    59  54  83 CALM      30.07S

$$

VAZ036>039-050-270500-
CENTRAL FOOTHILLS

CITY           SKY/WX    TMP DP  RH WIND       PRES   REMARKS
CHARLOTTESVILL CLEAR     65  55  70 CALM      30.03R
CULPEPER*      CLEAR     61  57  88 CALM      30.03R
ORANGE*        CLEAR     63  54  72 SW6       30.02R
GORDONSVILLE*  CLEAR     59  57  92 SW3       30.02R
WARRENTON*     CLEAR     60  54  80 CALM      30.01R

$$

VAZ055>057-270500-
NORTH AND CENTRAL PIEDMONT

CITY           SKY/WX    TMP DP  RH WIND       PRES   REMARKS
FREDERICKSBRG* CLEAR     65  59  81 CALM      29.99S
STAFFORD*      CLEAR     57  57 100 CALM      30.04R

$$

NCZ024-NYZ072-PAZ021-071-VAZ022-071-270500-
OTHER REGIONAL OBSERVATIONS

CITY           SKY/WX    TMP DP  RH WIND       PRES   REMARKS
NEW YORK CITY  CLEAR     72  47  40 CALM      30.01S
PHILADELPHIA   PTCLDY    70  54  56 S8        29.99S
PITTSBURGH     MOCLDY    62  49  62 S5        30.02F
ROANOKE        CLOUDY    68  49  50 NW5       30.09S
RICHMOND       CLEAR     66  56  70 SW7       30.02R
RALEIGH        PTCLDY    69  59  70 CALM      30.05S

$$

ANZ530>537-270500-
MARINE OBSERVATIONS

STATION/POSITION TIME  TEMP    WIND        PRES
                       AIR SEA DIR/SP/G
                 (UTC) (F)     (DEG/KT/KT) (MB)
THOMAS PT LIGHT  0400   77 77  180/ 16/ 18   N/A
BALT KEY BRIDGE  0348   74     190/  9/ 13 1014.7F
COVE POINT       0348   74     200/ 12/ 15 1016.3F
LEWISETTA        0348   72 80  210/  8/ 10 1015.8F
SOLOMONS ISLAND  0348   74 79  200/ 10/ 12   N/A
PINEY POINT      0348          200/ 13/ 15   N/A

$$





USA.gov is the U.S. government's official web portal to all federal, state and local government web resources and services.